Beatrice, NE

7:42 PM CDT on August 17, 2017 (GMT -0500)
Beatrice Municipal

Weather History for KBIE - January, 2010

Change the Weather History Date:

Sunday, January 24, 2010

  Actual Average Record
Temperature  
Mean Temperature 30 °F -  
Max Temperature 33 °F 40 °F 70 °F (1981)
Min Temperature 28 °F 20 °F -8 °F (1963)
Degree Days  
Heating Degree Days 34    
Moisture  
Dew Point 23 °F    
Average Humidity 72    
Maximum Humidity 91    
Minimum Humidity 57    
Precipitation  
Precipitation 0.00 in - - ()
Sea Level Pressure  
Sea Level Pressure 29.56 in    
Wind  
Wind Speed 17 mph (NW)    
Max Wind Speed 25 mph    
Max Gust Speed 34 mph    
Visibility 10 miles    
Events Snow    
Averages and records for this station are not official NWS values.
T = Trace of Precipitation, MM = Missing Value Source: NWS Daily Summary

Daily Weather History Graph

Daily Weather History Graph

Search for Another Location

Airport or City:

Trip Planner

Search our weather history database for the weather conditions in past years. The results will help you decide how hot, cold, wet, or windy it might be!

Date:

Astronomy

Jan. 24, 2010 Rise Set
Actual Time 7:42 AM CST 5:35 PM CST
Civil Twilight 7:13 AM CST 6:05 PM CST
Nautical Twilight 6:40 AM CST 6:38 PM CST
Astronomical Twilight 6:08 AM CST 7:10 PM CST
Moon 11:57 AM CST (1/24) 2:12 AM CST (1/24)
Length of Visible Light 10h 51m
Length of Day
9h 53m
Waxing Gibbous, 64% of the Moon is Illuminated
Jan 24
Waxing Gibbous
Jan 30
Full
Feb 5
Last Quarter
Feb 13
New
Feb 21
First Quarter

Hourly Weather History & Observations

Time (CST) Temp. Windchill Dew Point Humidity Pressure Visibility Wind Dir Wind Speed Gust Speed Precip Events Conditions
12:10 AM 33.8 °F 24.8 °F 31.1 °F 90% 29.51 in 10.0 mi NNW 12.7 mph - N/A   Overcast
12:30 AM 33.4 °F 24.8 °F 31.1 °F 91% 29.51 in 10.0 mi NW 11.5 mph - N/A   Overcast
12:50 AM 33.8 °F 23.2 °F 30.4 °F 87% 29.51 in 10.0 mi NNW 17.3 mph 23.0 mph N/A   Overcast
1:10 AM 33.8 °F 21.9 °F 29.5 °F 84% 29.51 in 10.0 mi NNW 21.9 mph - N/A   Overcast
1:30 AM 33.8 °F 21.9 °F 28.8 °F 82% 29.51 in 10.0 mi NNW 21.9 mph 31.1 mph N/A   Overcast
1:50 AM 33.1 °F 22.2 °F 29.8 °F 88% 29.51 in 10.0 mi NNW 17.3 mph - N/A   Overcast
2:10 AM 32.9 °F 20.1 °F 27.9 °F 82% 29.51 in 10.0 mi NNW 24.2 mph 31.1 mph N/A   Overcast
2:30 AM 32.4 °F 20.3 °F 26.4 °F 79% 29.52 in 10.0 mi NNW 20.7 mph 28.8 mph N/A   Overcast
2:50 AM 32.0 °F 18.9 °F 25.0 °F 75% 29.53 in 10.0 mi NNW 24.2 mph 29.9 mph N/A   Scattered Clouds
3:10 AM 31.5 °F 20.1 °F 26.8 °F 83% 29.52 in 10.0 mi NW 17.3 mph - N/A   Clear
3:30 AM 30.7 °F 20.0 °F 25.7 °F 82% 29.52 in 10.0 mi NW 15.0 mph - N/A   Clear
3:50 AM 30.2 °F 19.8 °F 25.2 °F 82% 29.52 in 10.0 mi NW 13.8 mph - N/A   Clear
4:10 AM 30.0 °F 19.1 °F 24.8 °F 81% 29.53 in 10.0 mi NW 15.0 mph - N/A   Clear
4:30 AM 29.8 °F 19.3 °F 24.6 °F 81% 29.54 in 10.0 mi NW 13.8 mph - N/A   Clear
4:50 AM 29.7 °F 19.1 °F 24.1 °F 80% 29.54 in 10.0 mi NW 13.8 mph - N/A   Clear
5:10 AM 29.5 °F 19.3 °F 23.7 °F 79% 29.54 in 10.0 mi NW 12.7 mph - N/A   Clear
5:30 AM 29.3 °F 19.1 °F 23.5 °F 79% 29.54 in 10.0 mi NW 12.7 mph - N/A   Clear
5:50 AM 29.3 °F 18.6 °F 22.6 °F 76% 29.55 in 10.0 mi NW 13.8 mph 19.6 mph N/A   Clear
6:10 AM 29.3 °F 17.3 °F 21.9 °F 74% 29.55 in 10.0 mi NW 17.3 mph 21.9 mph N/A   Clear
6:30 AM 28.9 °F 17.7 °F 21.9 °F 75% 29.56 in 10.0 mi NW 15.0 mph - N/A   Clear
6:50 AM 28.4 °F 18.0 °F 21.7 °F 76% 29.57 in 10.0 mi NW 12.7 mph - N/A   Clear
7:10 AM 28.4 °F 19.1 °F 21.4 °F 75% 29.57 in 10.0 mi NW 10.4 mph - N/A   Clear
7:30 AM 28.6 °F 17.7 °F 21.2 °F 74% 29.58 in 10.0 mi NW 13.8 mph 20.7 mph N/A   Clear
7:50 AM 28.4 °F 18.0 °F 21.2 °F 74% 29.58 in 10.0 mi WNW 12.7 mph - N/A   Clear
8:10 AM 28.4 °F 18.0 °F 20.8 °F 73% 29.58 in 10.0 mi NW 12.7 mph - N/A   Clear
8:30 AM 29.1 °F 19.4 °F 20.8 °F 71% 29.59 in 10.0 mi WNW 11.5 mph - N/A   Clear
8:50 AM 29.7 °F 20.1 °F 20.8 °F 70% 29.58 in 10.0 mi WNW 11.5 mph - N/A   Clear
9:10 AM 30.2 °F 20.2 °F 21.6 °F 70% 29.58 in 10.0 mi WNW 12.7 mph - N/A   Clear
9:30 AM 31.5 °F 21.4 °F 21.2 °F 66% 29.58 in 10.0 mi WNW 13.8 mph - N/A   Clear
9:50 AM 32.0 °F 20.1 °F 21.0 °F 64% 29.59 in 10.0 mi NW 19.6 mph 25.3 mph N/A   Clear
10:10 AM 32.0 °F 19.2 °F 20.8 °F 63% 29.60 in 10.0 mi NW 23.0 mph 28.8 mph N/A   Clear
10:30 AM 32.2 °F 18.9 °F 19.9 °F 61% 29.60 in 10.0 mi NW 25.3 mph 34.5 mph N/A   Clear
10:50 AM 32.7 °F 20.1 °F 19.6 °F 58% 29.60 in 10.0 mi NW 23.0 mph 31.1 mph N/A   Clear
11:10 AM 33.4 °F 21.1 °F 19.6 °F 57% 29.60 in 10.0 mi WNW 23.0 mph 28.8 mph N/A   Scattered Clouds
11:30 AM 33.3 °F 20.9 °F 20.5 °F 59% 29.60 in 10.0 mi NW 23.0 mph - N/A   Scattered Clouds
11:50 AM 32.7 °F 19.6 °F 19.9 °F 59% 29.59 in 10.0 mi NW 25.3 mph 28.8 mph N/A   Mostly Cloudy
12:10 PM 32.9 °F 21.6 °F 20.5 °F 60% 29.58 in 10.0 mi WNW 18.4 mph 26.5 mph N/A   Mostly Cloudy
12:30 PM 33.1 °F 21.9 °F 21.0 °F 61% 29.57 in 10.0 mi WNW 18.4 mph 23.0 mph N/A   Mostly Cloudy
12:50 PM 32.9 °F 21.0 °F 21.0 °F 62% 29.57 in 10.0 mi WNW 20.7 mph 28.8 mph N/A   Overcast
1:10 PM 32.7 °F 20.7 °F 20.3 °F 60% 29.56 in 10.0 mi NW 20.7 mph 31.1 mph N/A   Overcast
1:30 PM 32.5 °F 20.2 °F 20.3 °F 61% 29.56 in 10.0 mi NW 21.9 mph 31.1 mph N/A   Overcast
1:50 PM 32.9 °F 20.1 °F 20.5 °F 60% 29.55 in 10.0 mi NW 24.2 mph 32.2 mph N/A   Overcast
2:10 PM 32.4 °F 20.9 °F 21.9 °F 65% 29.54 in 10.0 mi WNW 18.4 mph 31.1 mph N/A   Overcast
2:30 PM 32.7 °F 20.4 °F 21.2 °F 63% 29.54 in 10.0 mi WNW 21.9 mph 32.2 mph N/A   Overcast
2:50 PM 32.5 °F 21.2 °F 21.7 °F 64% 29.55 in 10.0 mi NW 18.4 mph 29.9 mph N/A   Overcast
3:10 PM 32.9 °F 21.6 °F 21.7 °F 64% 29.56 in 10.0 mi WNW 18.4 mph 28.8 mph N/A   Overcast
3:30 PM 32.5 °F 20.5 °F 22.3 °F 66% 29.56 in 10.0 mi WNW 20.7 mph 27.6 mph N/A   Overcast
3:50 PM 32.7 °F 20.4 °F 22.1 °F 65% 29.56 in 10.0 mi WNW 21.9 mph 27.6 mph N/A   Mostly Cloudy
4:10 PM 32.4 °F 21.7 °F 22.3 °F 66% 29.56 in 10.0 mi WNW 16.1 mph - N/A   Mostly Cloudy
4:30 PM 32.5 °F 20.5 °F 21.7 °F 64% 29.57 in 10.0 mi WNW 20.7 mph 29.9 mph N/A   Overcast
4:50 PM 32.0 °F 19.2 °F 21.7 °F 66% 29.58 in 10.0 mi WNW 23.0 mph 32.2 mph N/A   Overcast
5:10 PM 31.8 °F 21.0 °F 23.7 °F 72% 29.59 in 7.0 mi WNW 16.1 mph 23.0 mph N/A Snow Light Snow
5:30 PM 31.6 °F 19.3 °F 23.0 °F 70% 29.58 in 10.0 mi WNW 20.7 mph 29.9 mph N/A   Overcast
5:50 PM 31.6 °F 19.0 °F 23.0 °F 70% 29.58 in 10.0 mi WNW 21.9 mph 27.6 mph N/A   Overcast
6:10 PM 31.1 °F 17.7 °F 22.6 °F 71% 29.58 in 10.0 mi NW 24.2 mph 28.8 mph N/A   Scattered Clouds
6:30 PM 30.9 °F 19.8 °F 23.7 °F 75% 29.59 in 10.0 mi WNW 16.1 mph 24.2 mph N/A   Mostly Cloudy
6:50 PM 29.8 °F 17.3 °F 25.0 °F 82% 29.59 in 10.0 mi WNW 19.6 mph 24.2 mph N/A   Overcast
7:10 PM 29.8 °F 18.0 °F 24.4 °F 80% 29.59 in 10.0 mi WNW 17.3 mph 24.2 mph N/A   Overcast
7:30 PM 29.5 °F 18.4 °F 25.9 °F 86% 29.60 in 5.0 mi WNW 15.0 mph 19.6 mph N/A Snow Light Snow
7:50 PM 29.3 °F 15.9 °F 24.8 °F 83% 29.60 in 7.0 mi NW 21.9 mph 27.6 mph N/A Snow Light Snow
8:10 PM 29.3 °F 17.3 °F 23.7 °F 80% 29.59 in 10.0 mi WNW 17.3 mph - N/A   Mostly Cloudy
8:30 PM 29.3 °F 17.0 °F 23.2 °F 78% 29.60 in 10.0 mi NW 18.4 mph 29.9 mph N/A Snow Light Snow
8:50 PM 28.9 °F 17.7 °F 23.9 °F 81% 29.59 in 10.0 mi WNW 15.0 mph - N/A Snow Light Snow
9:10 PM 28.4 °F 17.0 °F 25.3 °F 88% 29.59 in 3.0 mi WNW 15.0 mph - N/A Snow Light Snow
9:30 PM 28.6 °F 16.4 °F 23.9 °F 83% 29.59 in 10.0 mi WNW 17.3 mph 21.9 mph N/A Snow Light Snow
9:50 PM 28.4 °F 16.2 °F 23.7 °F 83% 29.58 in 10.0 mi WNW 17.3 mph 20.7 mph N/A Snow Light Snow
10:10 PM 29.1 °F 17.1 °F 21.2 °F 72% 29.59 in 10.0 mi WNW 17.3 mph 26.5 mph N/A   Overcast
10:30 PM 28.8 °F 16.2 °F 20.3 °F 71% 29.58 in 10.0 mi WNW 18.4 mph 27.6 mph N/A   Overcast
10:50 PM 28.9 °F 15.8 °F 18.5 °F 65% 29.59 in 10.0 mi NW 20.7 mph 27.6 mph N/A   Overcast
11:10 PM 28.9 °F 13.7 °F 16.7 °F 60% 29.59 in 10.0 mi NW 28.8 mph 38.0 mph N/A   Overcast
11:30 PM 28.8 °F 14.6 °F 17.2 °F 62% 29.59 in 10.0 mi NW 24.2 mph 31.1 mph N/A   Overcast
11:50 PM 28.2 °F 14.8 °F 18.3 °F 66% 29.59 in 10.0 mi NW 20.7 mph 29.9 mph N/A   Overcast